Temp
65 66 66 65 65 65 65 64 64 64 64 64 64 64 64 64 65 64 58 64 68 74 71 64 63 61 60 56 56 52 40 36 39 42 44 51 49 54 54 51 51 52 51 56 58
65 65 65 65 65 65 64 64 64 64 64 64 64 64 63 63 61 60 69 74 74 73 64 59 57 58 53 53 53 46 38 42 48 47 46 46 47 48 47 47 47 48 53 55 55
65 65 65 65 64 64 64 64 64 64 63 63 63 63 63 60 58 58 73 74 74 70 63 60 58 56 51 51 50 46 41 48 50 52 53 46 44 49 45 41 45 44 48 51 51
65 65 64 64 64 63 64 63 64 64 63 63 63 63 62 58 47 60 74 74 74 68 64 60 57 50 46 46 49 44 50 51 52 53 51 46 48 43 45 44 49 50 50 49 48
64 64 64 63 63 63 63 63 64 64 63 62 62 62 58 56 54 66 72 71 67 64 60 57 52 48 45 44 47 44 47 52 51 50 48 49 43 44 44 47 49 51 48 46 47
64 63 63 63 63 62 63 63 63 63 62 62 62 62 57 51 64 64 65 65 65 61 58 57 52 52 48 45 44 46 47 48 50 50 49 45 42 44 45 47 48 47 46 48 50
63 62 62 62 62 62 63 63 63 63 63 63 63 61 58 55 62 63 66 61 62 61 56 57 56 52 49 46 50 47 44 47 48 49 46 46 39 38 44 46 46 45 46 47 47
63 62 62 62 61 62 62 62 62 62 63 63 63 57 52 65 62 64 64 62 64 63 60 59 57 53 49 49 49 44 41 35 46 47 47 46 33 40 44 44 43 43 44 45 46
62 61 61 61 61 61 61 62 63 63 64 63 58 55 50 68 62 61 60 59 60 60 59 66 56 48 48 40 38 39 30 33 40 46 45 42 32 40 43 43 41 41 41 42 43
61 61 60 61 60 61 61 63 63 62 63 63 63 53 59 56 59 61 60 61 56 55 55 54 46 42 40 37 30 32 31 33 35 40 40 36 33 38 40 40 39 39 40 40 40
61 60 60 60 60 61 58 57 54 55 55 50 50 51 56 61 60 59 60 57 56 53 43 46 41 35 38 38 39 37 34 34 38 44 38 34 34 35 38 37 36 36 37 38 38
60 60 60 60 60 61 55 49 47 49 47 54 55 55 58 57 54 58 61 52 50 43 45 42 36 42 45 43 40 39 35 35 40 42 39 33 32 35 36 36 37 35 37 37 37
60 59 59 59 60 56 51 50 54 52 46 54 56 55 56 58 52 55 57 50 47 43 41 37 42 48 46 40 39 36 33 34 36 40 37 34 31 32 36 36 38 37 37 38 35
59 59 59 58 57 52 49 54 54 53 42 50 54 55 57 55 51 58 56 51 48 42 42 41 45 44 41 40 39 34 40 40 38 34 30 35 26 30 32 32 33 32 33 35 37
59 59 58 59 52 51 54 54 53 50 30 51 54 61 58 52 53 54 55 53 44 44 43 40 41 40 40 41 42 39 42 39 38 33 31 31 27 30 32 30 30 30 32 33 36
59 58 58 55 52 52 53 51 50 41 29 45 52 51 50 51 52 54 52 54 50 44 43 41 45 43 41 44 43 45 38 38 34 32 24 30 29 29 29 30 30 30 31 33 35
58 58 56 57 52 53 52 49 40 33 48 45 44 48 44 45 48 48 46 42 39 34 33 39 40 43 45 40 42 40 32 25 25 25 25 31 28 29 32 33 33 31 31 32 32
57 57 57 57 54 52 50 47 36 41 41 47 46 46 42 45 44 45 42 38 41 39 32 29 30 40 44 39 36 34 33 26 23 23 27 34 28 32 35 34 34 34 33 32 31
57 52 52 54 54 51 49 36 37 40 45 44 45 40 40 44 42 43 37 38 39 39 33 31 33 42 43 42 41 35 30 36 30 30 26 30 32 33 34 33 33 32 32 30 30
49 49 51 54 52 51 45 41 41 46 47 45 38 40 36 40 40 39 36 41 41 42 40 36 30 38 42 42 40 37 40 31 31 24 24 28 29 30 29 30 32 31 30 30 31
49 48 55 53 52 48 40 39 44 49 48 44 40 38 37 37 36 36 38 42 43 42 41 37 34 35 37 35 35 36 33 34 33 31 26 24 30 37 35 34 33 32 32 30 29
47 45 55 53 47 40 41 43 48 47 47 45 43 41 38 38 37 37 37 41 45 43 37 37 33 28 34 37 39 37 36 37 30 29 30 29 27 36 37 37 35 32 32 31 30
45 44 52 53 40 39 43 46 46 45 44 44 42 45 43 39 39 39 39 45 45 42 37 38 32 25 31 34 36 34 38 41 37 32 30 27 29 36 35 34 34 31 30 31 31
44 42 46 44 41 39 39 42 42 46 45 46 44 45 43 41 45 41 41 44 44 42 49 44 33 32 27 32 33 31 34 38 37 26 30 32 36 31 33 33 32 32 31 30 30
44 42 41 39 41 39 40 41 40 41 44 44 42 44 44 39 40 40 39 41 44 47 40 39 30 29 33 34 33 34 34 35 31 34 30 33 35 41 36 35 34 32 30 29 29
43 42 40 39 40 38 40 38 39 42 43 41 42 47 45 41 43 40 41 39 38 37 34 36 30 29 27 34 33 30 34 35 35 35 35 36 34 40 39 37 32 31 31 29 28
48 47 46 43 38 37 38 40 41 42 45 46 47 45 41 43 46 47 47 42 41 38 38 37 32 31 25 28 29 27 32 32 32 34 34 29 33 30 30 32 31 30 30 28 28
MSLP
1021.65 1021.27 1020.88 1020.38 1020.02 1019.70 1019.37 1019.09 1018.77 1018.51 1018.33 1018.16 1018.00 1017.92 1017.79 1017.53 1016.81 1016.53 1016.96 1017.05 1016.75 1016.24 1015.85 1015.63 1015.36 1015.62 1015.62 1016.45 1016.80 1017.54 1019.04 1019.94 1019.69 1019.47 1019.43 1019.53 1019.58 1019.60 1019.97 1019.84 1019.98 1020.55 1020.42 1020.26 1019.74
1021.71 1021.31 1020.89 1020.41 1019.96 1019.56 1019.24 1018.98 1018.68 1018.40 1018.27 1018.16 1018.02 1017.93 1017.75 1017.62 1017.17 1017.06 1017.06 1016.77 1016.60 1016.33 1016.22 1016.42 1016.49 1016.42 1016.87 1017.28 1017.56 1018.13 1019.38 1019.23 1019.06 1019.24 1019.87 1020.55 1020.59 1020.83 1020.93 1020.86 1020.76 1020.35 1019.70 1019.64 1019.29
1021.78 1021.42 1021.00 1020.57 1020.00 1019.56 1019.20 1018.91 1018.57 1018.30 1018.15 1018.00 1017.88 1017.83 1017.71 1017.52 1017.44 1017.45 1017.00 1016.82 1016.67 1016.52 1016.44 1016.60 1016.80 1017.04 1017.80 1018.08 1018.53 1018.62 1019.15 1019.23 1019.19 1019.24 1019.75 1020.89 1021.64 1022.11 1022.26 1022.51 1022.84 1022.35 1021.25 1020.98 1020.16
1021.81 1021.41 1020.88 1020.45 1019.99 1019.47 1019.05 1018.70 1018.38 1017.98 1017.80 1017.74 1017.73 1017.77 1017.70 1017.61 1017.96 1017.28 1016.99 1016.81 1016.71 1016.66 1016.69 1016.90 1017.33 1017.93 1018.73 1019.00 1019.00 1019.22 1019.24 1019.25 1019.37 1019.59 1020.23 1021.36 1022.22 1023.20 1023.66 1024.46 1023.89 1023.16 1022.39 1021.49 1020.92
1021.86 1021.45 1020.94 1020.46 1019.99 1019.42 1018.96 1018.53 1018.18 1017.88 1017.73 1017.70 1017.77 1017.73 1017.65 1017.66 1017.75 1017.12 1017.07 1016.95 1016.82 1016.89 1017.31 1017.57 1017.89 1018.27 1018.97 1019.21 1019.13 1019.14 1019.35 1019.39 1019.81 1020.23 1021.08 1021.84 1022.87 1023.37 1023.87 1024.05 1023.61 1022.95 1022.49 1021.58 1020.36
1021.84 1021.40 1020.82 1020.31 1019.88 1019.40 1018.85 1018.46 1018.13 1017.94 1017.73 1017.73 1017.84 1017.77 1017.56 1017.88 1017.40 1017.19 1017.22 1017.16 1017.21 1017.27 1017.56 1017.62 1017.97 1018.23 1018.85 1019.07 1019.12 1019.29 1019.52 1019.75 1020.20 1020.67 1021.23 1022.36 1023.57 1023.76 1024.19 1023.76 1022.99 1022.77 1022.29 1021.37 1020.03
1022.00 1021.41 1020.72 1020.14 1019.63 1019.21 1018.72 1018.40 1018.24 1017.99 1017.86 1017.82 1017.88 1017.86 1017.71 1017.95 1017.52 1017.53 1017.39 1017.51 1017.57 1017.69 1017.92 1018.10 1018.05 1018.29 1018.72 1019.15 1019.15 1019.41 1019.80 1020.00 1020.37 1020.71 1021.57 1022.28 1023.76 1024.75 1024.73 1024.23 1023.74 1023.23 1022.52 1021.58 1020.83
1022.21 1021.60 1020.92 1020.21 1019.50 1019.01 1018.51 1018.14 1018.16 1018.05 1017.95 1017.86 1017.89 1017.87 1017.95 1017.48 1017.61 1017.65 1017.75 1017.84 1017.82 1017.85 1017.93 1017.97 1018.06 1018.42 1019.01 1019.36 1019.69 1020.11 1020.46 1020.86 1020.46 1020.72 1021.62 1022.17 1024.13 1024.97 1025.08 1024.66 1024.24 1023.68 1022.77 1022.13 1021.44
1022.31 1021.72 1021.14 1020.44 1019.57 1018.92 1018.42 1018.16 1018.07 1018.04 1018.03 1017.92 1017.93 1017.83 1018.05 1017.52 1017.84 1018.00 1017.98 1018.14 1018.08 1018.03 1017.99 1018.08 1018.50 1019.46 1019.64 1020.41 1021.03 1021.16 1021.24 1021.29 1021.14 1021.42 1021.64 1022.61 1024.52 1025.23 1025.38 1025.14 1024.72 1024.22 1023.60 1022.89 1021.84
1022.52 1022.02 1021.33 1020.62 1019.80 1018.86 1018.42 1018.22 1018.11 1018.08 1018.09 1018.08 1018.18 1018.50 1018.28 1018.61 1018.36 1018.18 1017.93 1017.97 1018.18 1018.30 1018.51 1018.82 1019.71 1020.43 1020.93 1021.15 1021.74 1021.79 1021.76 1021.47 1021.56 1022.18 1022.63 1023.72 1025.03 1025.50 1025.67 1025.63 1025.54 1025.05 1024.31 1023.58 1023.06
1022.67 1022.10 1021.52 1020.97 1020.15 1019.28 1018.45 1018.46 1019.25 1019.22 1019.17 1019.83 1019.75 1019.45 1019.09 1018.78 1018.57 1018.23 1018.10 1018.20 1018.34 1018.60 1019.31 1019.77 1020.40 1021.13 1021.21 1021.22 1021.33 1021.47 1021.66 1021.72 1021.52 1021.82 1022.86 1024.12 1024.96 1025.70 1025.80 1025.82 1025.58 1025.33 1025.32 1024.77 1024.35
1022.62 1022.12 1021.54 1021.09 1020.62 1019.89 1019.83 1021.10 1022.20 1022.46 1021.10 1019.89 1019.62 1019.40 1019.18 1019.12 1018.80 1018.43 1018.32 1018.70 1018.80 1019.36 1019.64 1020.23 1020.56 1020.63 1020.84 1021.07 1021.29 1021.39 1021.48 1021.50 1021.58 1022.02 1022.70 1024.17 1024.93 1025.59 1025.83 1026.16 1026.37 1026.23 1026.10 1025.77 1024.80
1022.70 1022.15 1021.48 1020.82 1020.50 1020.85 1021.62 1022.33 1022.33 1022.39 1021.68 1020.13 1019.37 1019.14 1019.10 1019.10 1019.17 1018.92 1018.90 1019.13 1019.47 1019.79 1020.09 1020.39 1020.48 1020.32 1020.51 1020.84 1020.91 1020.95 1021.22 1021.41 1021.92 1022.34 1023.13 1023.85 1024.63 1025.34 1025.88 1026.32 1026.68 1026.77 1026.86 1026.62 1026.26
1022.69 1022.30 1021.78 1020.90 1020.96 1021.90 1022.31 1022.41 1022.32 1022.35 1021.91 1020.78 1019.52 1019.04 1018.94 1018.96 1019.17 1018.96 1019.17 1019.61 1019.67 1020.12 1020.35 1020.49 1020.36 1020.43 1020.51 1020.74 1021.15 1021.28 1021.12 1021.46 1021.82 1022.38 1022.83 1023.26 1024.21 1024.51 1025.34 1026.24 1026.82 1027.35 1027.20 1027.01 1026.54
1022.74 1022.34 1022.07 1021.47 1022.11 1022.39 1022.72 1022.46 1022.33 1022.42 1022.25 1020.92 1019.59 1018.82 1018.96 1019.34 1019.54 1019.29 1019.33 1019.28 1019.91 1020.37 1020.84 1020.77 1020.60 1020.48 1020.52 1020.66 1020.94 1021.02 1021.16 1021.68 1022.04 1022.66 1023.22 1023.45 1024.27 1023.64 1024.74 1026.00 1027.17 1027.87 1028.02 1027.77 1027.38
1022.72 1022.49 1022.22 1022.10 1022.41 1022.44 1022.44 1022.43 1022.54 1022.33 1021.89 1020.80 1019.90 1019.71 1019.69 1019.55 1019.60 1019.51 1019.62 1019.68 1020.05 1020.54 1020.82 1020.84 1020.63 1020.74 1020.69 1020.76 1021.09 1021.41 1021.53 1022.05 1022.67 1023.07 1023.47 1023.12 1023.93 1023.77 1024.83 1025.95 1027.08 1028.03 1028.41 1028.46 1028.07
1022.64 1022.45 1022.18 1022.18 1022.42 1022.35 1022.40 1022.62 1022.66 1022.33 1021.97 1021.54 1020.99 1020.71 1020.80 1020.59 1020.17 1020.15 1020.44 1020.96 1021.55 1021.83 1022.18 1021.75 1021.23 1020.90 1020.81 1020.89 1021.18 1021.72 1022.04 1022.43 1023.10 1023.32 1023.21 1023.18 1023.94 1023.62 1024.82 1025.87 1026.97 1028.14 1028.69 1028.80 1028.74
1022.46 1022.28 1022.12 1022.12 1022.20 1022.24 1022.36 1022.36 1022.31 1022.55 1022.04 1021.78 1021.52 1021.32 1021.44 1021.29 1021.00 1021.06 1021.32 1021.96 1022.09 1022.33 1022.79 1022.90 1021.70 1021.33 1021.25 1021.49 1021.74 1021.95 1022.72 1023.27 1023.56 1023.57 1023.20 1022.98 1023.33 1023.52 1024.83 1025.88 1026.83 1027.96 1028.68 1029.06 1029.09
1022.30 1022.26 1022.19 1022.13 1022.08 1022.17 1022.22 1022.64 1022.98 1022.62 1022.26 1022.10 1021.88 1022.00 1021.96 1021.82 1021.94 1021.70 1021.91 1022.18 1022.27 1022.44 1022.99 1023.03 1022.34 1021.55 1021.29 1021.24 1021.72 1021.96 1022.45 1022.75 1022.97 1023.09 1023.45 1022.65 1022.86 1023.72 1024.87 1026.11 1026.96 1027.72 1028.48 1029.14 1029.51
1023.25 1023.06 1022.49 1022.10 1022.03 1022.11 1022.47 1023.14 1023.01 1022.69 1022.52 1022.35 1022.38 1022.58 1022.80 1022.63 1022.61 1022.53 1022.23 1022.15 1022.33 1022.54 1022.82 1023.24 1023.08 1022.09 1021.76 1021.69 1021.80 1021.81 1022.33 1023.10 1023.49 1023.50 1023.08 1022.49 1022.76 1022.97 1024.41 1025.42 1026.62 1027.63 1028.35 1029.06 1029.63
1023.50 1023.35 1022.28 1022.01 1021.97 1022.33 1023.36 1023.37 1022.90 1022.69 1022.74 1022.85 1022.71 1022.79 1023.02 1023.14 1023.03 1022.86 1022.59 1022.38 1022.43 1022.64 1022.84 1023.25 1023.84 1023.11 1022.67 1022.25 1022.20 1022.28 1022.30 1022.80 1023.49 1023.57 1023.41 1022.93 1021.95 1021.78 1022.79 1024.12 1025.68 1027.09 1028.13 1028.96 1029.58
1023.75 1023.56 1022.38 1021.75 1022.73 1023.45 1023.72 1023.29 1022.97 1022.71 1022.72 1022.81 1022.89 1022.99 1023.11 1023.22 1023.20 1022.99 1022.70 1022.36 1022.33 1022.56 1023.02 1023.59 1024.27 1024.22 1023.11 1022.44 1022.32 1022.32 1022.30 1022.70 1023.52 1023.55 1023.56 1023.56 1022.26 1022.12 1022.69 1023.64 1025.18 1026.78 1028.05 1028.99 1029.59
1024.45 1023.99 1022.75 1022.53 1023.72 1024.28 1023.80 1023.34 1023.00 1022.93 1022.84 1022.91 1023.06 1023.18 1023.20 1023.45 1023.51 1023.16 1022.85 1022.51 1022.62 1022.89 1023.20 1023.79 1024.55 1024.73 1023.72 1023.34 1022.76 1022.64 1022.45 1022.40 1023.24 1023.98 1023.22 1023.79 1022.42 1022.71 1023.52 1024.36 1025.28 1026.55 1027.92 1028.89 1029.61
1024.99 1024.91 1024.21 1024.28 1024.85 1024.57 1024.29 1023.83 1023.38 1023.03 1023.01 1023.07 1023.10 1023.28 1023.43 1023.57 1023.63 1023.41 1023.32 1022.92 1022.95 1023.21 1023.47 1024.04 1024.67 1024.97 1024.57 1023.76 1023.47 1023.29 1022.74 1022.61 1022.98 1023.35 1022.55 1022.04 1021.96 1022.90 1023.77 1024.67 1025.65 1026.76 1027.85 1028.85 1029.50
1025.47 1025.93 1025.90 1025.89 1025.60 1025.20 1024.80 1024.34 1023.88 1023.58 1023.34 1023.20 1023.38 1023.50 1023.69 1023.96 1023.87 1023.80 1023.72 1023.72 1023.41 1023.28 1023.90 1024.51 1024.90 1025.03 1024.49 1024.18 1023.88 1023.22 1022.39 1022.58 1022.77 1021.98 1022.45 1020.69 1021.62 1021.75 1022.75 1023.68 1025.07 1026.52 1027.83 1028.76 1029.42
1025.53 1025.96 1026.33 1026.24 1025.98 1025.66 1025.27 1024.84 1024.47 1024.08 1023.88 1023.56 1023.58 1023.65 1023.95 1024.18 1023.93 1024.05 1024.23 1024.40 1024.39 1024.17 1024.61 1025.15 1025.13 1025.30 1024.76 1024.22 1023.87 1023.15 1021.68 1021.88 1021.74 1021.49 1021.41 1021.40 1021.11 1021.29 1021.90 1023.49 1025.31 1026.32 1027.56 1028.57 1029.41
1025.51 1025.52 1025.65 1026.03 1025.96 1026.01 1025.67 1025.09 1024.74 1024.51 1023.99 1023.86 1023.83 1023.95 1024.03 1023.80 1023.78 1023.76 1023.96 1024.26 1024.34 1024.66 1025.22 1025.60 1025.71 1025.85 1024.98 1024.62 1024.12 1022.43 1020.84 1021.08 1021.04 1021.12 1021.43 1022.13 1022.02 1022.62 1023.41 1023.87 1025.04 1026.57 1027.71 1028.62 1029.46
Wind_Speed
14 15 15 15 15 15 14 13 12 11 10 9 9 10 11 13 11 2 5 3 6 11 7 6 7 9 5 5 5 3 6 2 2 4 2 5 4 6 1 4 4 5 2 9 16
15 16 16 17 17 16 15 14 13 12 11 10 9 9 10 11 2 5 2 5 8 10 6 8 8 8 5 6 5 6 4 3 3 1 4 5 5 4 6 11 7 21 22 22 22
15 16 17 17 18 17 15 15 14 13 11 9 8 7 7 6 3 3 4 6 8 6 2 0 2 3 7 4 6 1 3 1 2 2 5 6 8 8 7 7 8 19 23 21 22
17 18 19 18 17 16 15 15 13 11 9 7 5 5 5 0 3 3 3 6 8 6 4 5 7 5 5 4 5 4 3 1 3 3 4 3 6 5 11 4 12 13 17 19 18
17 18 19 19 18 17 16 14 11 10 8 5 3 2 1 6 1 2 4 7 3 3 5 4 6 3 4 2 3 3 2 3 7 9 7 6 6 4 12 13 11 14 15 18 19
19 19 20 20 18 16 15 13 10 9 7 3 2 1 2 5 3 2 4 3 4 4 4 5 3 2 5 2 2 2 3 2 5 5 3 6 6 5 11 15 17 17 18 18 17
20 20 21 22 21 18 16 13 7 6 6 4 1 2 7 3 1 3 3 2 2 2 3 2 0 2 3 2 2 2 4 5 3 4 4 6 5 9 13 17 18 18 17 18 17
20 19 21 22 22 18 16 10 2 4 4 2 2 1 3 1 1 4 5 3 4 3 2 1 1 4 3 1 6 5 5 3 3 1 5 5 2 4 11 14 17 18 16 18 19
20 20 21 22 22 19 17 5 1 3 2 2 3 3 2 3 4 3 2 2 2 2 2 2 3 4 7 4 5 7 2 2 4 6 2 5 1 5 8 14 15 15 16 17 19
18 19 20 22 21 20 10 2 3 2 2 1 1 4 5 4 3 4 1 2 2 1 3 6 6 5 5 6 1 3 3 3 4 1 8 5 3 5 7 8 11 13 15 17 19
17 19 19 20 18 17 8 3 8 6 10 3 2 1 4 7 2 1 2 2 2 6 3 4 7 2 3 2 3 2 2 4 4 4 5 2 3 3 7 6 12 14 16 16 17
17 19 20 18 12 12 5 7 2 2 2 1 3 3 2 2 4 3 4 4 4 2 2 6 1 1 1 1 2 3 3 4 3 3 4 5 3 2 5 5 7 9 12 15 17
15 17 21 21 2 6 6 4 2 3 3 5 1 1 3 2 3 5 5 1 4 2 2 4 1 1 3 1 1 2 3 2 3 1 2 6 3 3 3 4 7 8 8 11 15
14 15 18 23 5 2 4 5 2 1 6 8 5 2 1 1 2 1 2 2 4 2 1 2 1 1 1 1 1 4 3 2 3 0 4 3 5 4 4 3 7 10 11 12 14
13 14 15 10 2 4 4 4 1 2 6 5 6 2 5 4 3 4 1 3 1 3 4 3 2 2 1 2 3 7 2 4 2 2 3 1 2 4 2 1 4 7 9 10 11
12 12 13 2 2 1 3 1 2 7 2 5 3 7 7 4 4 5 4 5 1 2 2 2 1 1 2 3 2 5 1 4 4 2 2 3 4 4 3 3 1 3 6 8 10
14 13 6 1 1 1 1 3 6 7 2 6 4 5 2 4 6 4 4 7 4 6 7 7 2 2 1 4 2 7 5 3 4 2 5 2 0 4 3 4 4 4 5 6 7
14 11 1 1 2 1 2 5 7 1 2 2 3 4 3 5 3 7 3 4 4 4 2 3 8 2 2 1 2 1 2 4 3 3 4 1 6 2 3 7 7 6 5 5 6
14 3 2 2 3 1 5 6 2 2 2 4 4 5 5 3 3 7 3 0 2 1 2 3 5 3 3 1 4 1 0 3 2 2 2 2 4 2 5 5 6 6 5 5 5
3 4 3 5 3 4 6 2 1 2 3 1 2 3 4 6 7 6 3 1 0 0 2 2 5 2 4 0 1 2 3 2 3 3 5 3 5 5 9 10 7 6 6 5 5
3 4 3 5 2 6 4 2 0 1 2 2 1 2 0 3 2 4 3 2 1 1 1 2 2 5 2 2 2 1 1 1 1 2 3 4 5 4 8 14 12 8 7 6 5
2 3 4 3 5 1 2 1 1 1 1 1 1 2 1 2 3 3 3 3 0 1 3 1 4 5 9 2 2 2 2 2 2 4 3 2 8 3 3 9 11 9 7 6 6
2 2 3 3 3 2 4 2 0 1 2 1 1 3 1 2 3 4 3 1 1 1 1 2 1 5 8 5 1 4 5 5 4 3 11 5 7 3 3 6 6 11 8 7 6
2 4 5 5 1 3 3 2 3 0 2 1 1 1 1 2 3 5 3 3 1 2 2 1 3 8 8 7 3 6 6 6 6 6 6 17 13 5 6 9 8 8 8 7 6
4 1 1 3 3 2 1 1 2 3 0 0 0 3 3 2 3 4 2 5 4 3 3 3 6 5 9 8 6 14 18 12 12 18 14 15 16 13 15 18 14 11 9 8 5
2 2 3 1 2 0 1 2 2 3 2 3 3 2 3 5 7 5 2 3 6 2 1 1 4 1 6 10 9 11 19 14 16 18 17 17 21 5 3 10 11 13 12 9 7
1 0 3 1 1 3 3 4 3 1 3 3 4 1 5 11 7 9 7 7 7 3 2 3 2 4 7 4 8 13 10 4 3 5 4 9 5 5 5 13 14 12 9 9 7
Wind_Direction
5 359 353 347 345 343 340 336 329 324 319 317 320 330 338 340 323 51 38 296 328 333 343 330 15 2 26 48 49 94 61 80 144 165 245 7 19 3 34 48 44 15 14 312 323
1 356 352 347 345 342 337 335 330 324 320 317 319 328 338 342 7 58 297 327 341 350 22 25 353 355 40 13 23 72 91 177 194 132 88 39 56 359 36 16 346 340 327 336 336
359 354 351 349 346 342 338 336 331 325 320 315 311 320 333 331 82 345 326 330 345 7 356 269 1 35 49 18 354 77 134 351 351 25 92 113 53 29 9 17 348 318 319 326 323
357 354 350 351 350 341 339 339 339 333 328 319 310 324 329 269 112 276 304 322 339 346 22 18 27 49 62 24 337 77 48 36 11 27 57 79 118 89 60 319 309 306 312 314 312
354 352 348 348 348 341 340 343 348 350 349 334 333 348 212 53 99 300 332 336 355 29 44 47 45 81 87 338 357 73 356 37 92 85 93 90 51 129 14 347 325 330 334 323 311
355 352 347 346 347 341 336 341 347 4 6 26 19 280 75 73 296 324 323 7 29 37 29 46 114 127 105 103 84 353 2 133 134 152 114 79 29 57 338 340 347 349 336 338 350
357 351 346 345 344 343 338 340 343 16 39 65 59 312 64 156 339 343 360 41 15 43 57 22 150 100 144 122 300 55 76 26 78 183 144 133 50 11 343 346 349 348 341 348 357
355 350 346 344 339 339 336 338 333 31 56 67 354 348 90 253 230 35 356 23 18 40 85 152 11 108 59 333 25 62 56 37 298 76 8 154 311 313 345 342 359 353 357 357 358
352 350 348 346 338 337 341 24 87 12 31 342 30 69 44 349 26 339 26 16 330 32 8 74 46 61 24 53 18 13 173 206 298 36 132 44 99 312 341 354 359 0 2 359 359
351 348 346 347 340 334 346 41 352 15 317 294 48 42 11 320 309 330 302 37 46 352 29 38 44 56 24 53 239 286 318 270 233 169 53 62 123 326 325 357 355 359 359 5 1
348 346 346 350 339 342 7 25 19 356 40 78 293 186 306 295 279 335 5 25 22 51 44 13 64 12 288 227 258 265 248 251 260 135 102 120 137 294 312 352 7 13 358 360 3
345 345 343 350 332 9 32 67 78 208 16 42 276 290 265 339 345 331 15 49 46 49 23 23 90 215 222 99 279 249 222 267 301 143 104 180 241 236 316 358 10 10 3 359 356
343 344 343 345 355 40 66 52 328 144 82 323 304 313 297 34 336 305 35 2 57 45 28 146 249 77 165 270 354 234 192 250 233 96 53 140 281 195 227 21 13 23 1 19 8
337 346 349 335 65 326 47 323 342 160 76 320 347 10 12 95 18 338 49 59 12 9 35 226 56 64 4 316 111 316 221 216 273 56 233 177 276 226 192 342 29 357 9 360 12
333 343 354 17 268 54 311 335 89 47 56 301 311 293 323 67 302 9 359 19 19 317 76 292 17 1 337 274 171 239 182 238 231 204 348 205 95 249 89 33 11 3 6 1 359
330 338 344 32 45 139 328 359 52 47 282 338 318 356 10 4 338 322 17 40 114 62 350 246 263 193 270 302 212 323 15 39 50 86 342 234 155 257 178 144 126 40 16 8 7
327 335 332 144 303 320 82 69 35 92 344 327 331 4 325 313 332 41 27 15 38 24 4 338 337 303 2 344 29 18 40 345 349 6 235 261 353 265 148 127 128 94 43 25 7
324 328 310 219 332 30 86 49 70 50 327 1 349 330 31 359 335 340 47 24 28 67 70 50 333 4 351 211 268 354 116 139 282 288 294 291 241 265 148 126 122 114 95 53 32
324 346 21 309 339 84 65 49 166 213 266 344 336 47 331 358 19 12 36 197 211 61 46 19 278 302 210 171 135 264 146 215 209 197 262 255 268 170 137 155 153 142 104 76 47
359 356 297 323 0 59 70 151 198 304 334 358 61 40 334 318 15 22 321 266 245 149 131 213 299 249 294 44 266 206 149 354 355 299 275 257 268 249 206 200 183 166 148 119 83
33 21 274 339 72 46 96 217 262 324 351 357 199 303 357 314 323 301 289 322 6 226 152 147 133 288 326 179 205 4 312 153 239 195 265 300 262 203 210 191 183 172 156 139 112
64 10 302 358 52 43 98 281 344 309 16 345 120 216 196 319 287 276 258 231 336 161 331 309 156 276 242 267 236 241 227 147 152 284 249 296 267 343 248 169 158 154 148 140 130
61 275 314 51 92 4 318 323 213 326 275 167 298 227 134 232 304 227 287 274 352 334 250 179 296 321 335 4 320 226 208 168 133 5 243 252 260 46 85 133 155 151 151 148 137
48 10 335 44 51 103 30 341 314 261 287 229 253 33 22 287 238 288 297 309 336 241 167 105 204 194 221 234 209 261 238 207 196 204 272 238 263 210 204 191 170 157 148 143 134
29 356 178 330 353 44 9 302 274 302 236 325 319 225 180 276 292 251 250 322 270 246 161 160 236 204 260 274 265 269 267 258 227 245 242 262 258 269 202 199 182 156 147 147 144
128 118 15 303 322 57 250 254 233 289 238 245 204 175 185 223 210 258 321 201 242 10 143 10 274 317 269 254 272 278 273 261 254 257 251 260 264 236 177 132 154 160 160 159 156
199 130 108 235 119 101 239 243 243 199 286 269 241 282 249 242 242 247 225 222 228 201 183 233 222 349 278 344 301 277 266 213 245 224 211 223 260 145 159 164 158 153 156 155 157